User: anonymous   Login
Location: Unspecified
(0.0000°N, 0.0000°E)
Time: 20:08:53
(UTC+00:00)
Language:

TBA - TO BE ASSIGNED - Orbit

View from above orbital plane
View from above orbital plane
View from above satellite
View from above satellite

Ground track
Ground track

The orbit is defined by the following mean orbital elements,

1 67298U          26145.45687959 +.00000000 +00000-0 +28964-2 0 00007
2 67298  97.3882 222.3987 0005902  92.0828 268.1095 15.42901664    08
Epoch (UTC): 25 May 2026 10:57:54
Eccentricity: 0.0005902
inclination: 97.3882°
perigee height: 434 km
apogee height: 442 km
right ascension of ascending node: 222.3987°
argument of perigee: 92.0828°
revolutions per day: 15.42901664
mean anomaly at epoch: 268.1095°

The dashed part of the orbit path shows where the satellite is in the earth's shadow,  

DLR